[[{"header":{"parameterUnit":"m.s-1","parameterCategory":1,"la1":30.2991,"la2":30.254,"lo1":-89.0895,"lo2":-89.0444,"dy":0.0017,"dx":0.0017,"nx":28,"ny":28,"refTime":"2025-08-04T03:00:00:Z","depth":0,"parameterNumber":2,"parameterNumberName":"U-component_of_WINDS"},"data":[0,0,0,0,0,0,0,0,0,0,0,0,0,0,0,0,0,0,0,0,0,0,0,0,0,0,0,0,0,0,0,0,0,0,0,0,0,0,0,0,0,0,0,0,0,0,0,0,0,0,0,0,0,0,0,0,0,0,-2.4974,-2.4975,0,-2.5048,-2.5049,-2.505,-2.5081,-2.5081,-2.5081,-2.508,-2.515,-2.5152,-2.5154,0,0,0,0,0,0,0,0,0,0,0,0,0,-2.4854,-2.4856,-2.4974,-2.4975,-2.4976,-2.5048,-2.5049,-2.505,-2.5081,-2.5081,-2.5081,-2.508,-2.5149,-2.5152,-2.5154,0,0,0,0,0,0,0,0,0,0,0,0,0,-2.4915,-2.4857,-2.4974,-2.5,-2.5003,-2.5048,-2.5049,-2.505,-2.5081,-2.5081,-2.5081,-2.508,-2.5149,-2.5152,-2.5154,-2.5176,0,0,-2.5163,-2.5165,0,0,0,0,0,0,0,0,-2.4911,-2.4919,-2.4995,-2.4998,-2.5002,-2.5055,-2.5032,-2.5092,-2.5081,-2.5051,-2.508,-2.508,-2.5118,-2.5124,-2.5138,-2.518,-2.5183,-2.5164,-2.5165,-2.5167,-2.5168,0,0,0,0,0,0,0,-2.4907,-2.4916,-2.5003,-2.4996,-2.5,-2.5007,-2.5015,-2.5044,-2.5085,-2.5054,-2.5056,-2.5065,-2.512,-2.5135,-2.514,-2.5184,-2.5164,-2.5166,-2.5168,-2.5169,-2.5248,-2.5248,0,0,0,0,0,0,-2.49,-2.4913,-2.5001,-2.5005,-2.4956,-2.5009,-2.5018,-2.5038,-2.5084,-2.5091,-2.5065,-2.5066,-2.513,-2.5136,-2.5142,-2.5171,-2.5167,-2.517,-2.5171,-2.5247,-2.5248,-2.5248,0,0,0,0,0,0,-2.4897,-2.4907,-2.4998,-2.496,-2.4972,-2.5011,-2.5033,-2.504,-2.5055,-2.5093,-2.51,-2.5073,-2.513,-2.5138,-2.5168,-2.5174,-2.5171,-2.5174,-2.5247,-2.5247,-2.5248,-2.523,0,0,0,0,0,0,-2.4893,-2.4906,-2.4916,-2.496,-2.4974,-2.5024,-2.5034,-2.5041,-2.506,-2.5063,-2.5102,-2.5109,-2.513,-2.5164,-2.5171,-2.5178,-2.5176,-2.5247,-2.5247,-2.5248,-2.523,-2.5229,-2.5229,0,0,0,0,0,-2.4889,-2.4906,-2.4916,-2.4927,-2.4987,-2.5024,-2.5032,-2.5059,-2.5061,-2.507,-2.5095,-2.5107,-2.5173,-2.5166,-2.5175,-2.5183,-2.5246,-2.5247,-2.5248,-2.523,-2.5229,-2.5229,0,0,0,0,0,0,-2.4859,-2.4912,-2.4924,-2.4956,-2.4986,-2.503,-2.5042,-2.5057,-2.5085,-2.5085,-2.5115,-2.5124,-2.5151,-2.517,-2.5163,-2.5207,-2.521,-2.5213,-2.5194,-2.5194,-2.5193,-2.5188,-2.5178,0,0,0,0,0,-2.4857,-2.4885,-2.4929,-2.4953,-2.4967,-2.5002,-2.5019,-2.5038,-2.5068,-2.508,-2.5107,-2.5135,-2.5162,-2.5179,-2.5206,-2.5233,-2.5242,-2.5243,-2.5242,-2.5242,-2.5243,-2.526,-2.526,-2.525,-2.525,-2.525,0,0,-2.4851,-2.4884,-2.4899,-2.4948,-2.4973,-2.4999,-2.5012,-2.504,-2.5059,-2.5084,-2.5115,-2.5135,-2.5168,-2.5198,-2.5212,-2.5214,-2.5248,-2.5243,-2.5242,-2.5244,-2.526,-2.5261,-2.5262,-2.5251,-2.5251,-2.5251,0,0,-2.4855,-2.4883,-2.4907,-2.4932,-2.4971,-2.4994,-2.5,-2.5042,-2.5057,-2.5089,-2.5109,-2.5131,-2.5177,-2.52,-2.5218,-2.5232,-2.5244,-2.5239,-2.5237,-2.5252,-2.5253,-2.5254,-2.5259,-2.5261,-2.5241,-2.5241,-2.5241,0,-2.4843,-2.4886,-2.4916,-2.4944,-2.4964,-2.499,-2.5014,-2.5036,-2.508,-2.5093,-2.5096,-2.5155,-2.5179,-2.5214,-2.5218,-2.5231,-2.5238,-2.5235,-2.5251,-2.5252,-2.5253,-2.5259,-2.526,-2.524,-2.524,-2.524,-2.524,0,-2.4869,-2.4898,-2.4913,-2.4958,-2.498,-2.5005,-2.5038,-2.5056,-2.5072,-2.5095,-2.5127,-2.5157,-2.5191,-2.5201,-2.5216,-2.5238,-2.5238,-2.5246,-2.5249,-2.5253,-2.5258,-2.5261,-2.5239,-2.5239,-2.524,-2.524,0,0,-2.4856,-2.4919,-2.4923,-2.4945,-2.499,-2.5012,-2.5038,-2.5073,-2.5088,-2.5118,-2.514,-2.5179,-2.5186,-2.5206,-2.5224,-2.5238,-2.5247,-2.5244,-2.5245,-2.5243,-2.5274,-2.5268,-2.527,-2.5256,-2.5257,-2.5257,-2.5271,0,-2.4866,-2.4916,-2.4944,-2.4982,-2.5009,-2.5034,-2.5057,-2.5086,-2.5108,-2.5133,-2.5156,-2.5184,-2.5192,-2.5204,-2.5219,-2.5243,-2.5254,-2.5243,-2.5276,-2.5276,-2.5267,-2.5273,-2.5266,-2.5278,-2.5273,-2.5274,-2.5274,0,-2.4884,-2.4916,-2.4957,-2.5,-2.5013,-2.5033,-2.5068,-2.5092,-2.5125,-2.514,-2.5163,-2.5182,-2.5209,-2.5211,-2.5248,-2.524,-2.5255,-2.5269,-2.527,-2.5274,-2.5275,-2.5276,-2.5283,-2.5284,-2.5278,-2.5277,-2.5277,0,-2.487,-2.4923,-2.4955,-2.4972,-2.5023,-2.5037,-2.5058,-2.5092,-2.5111,-2.5141,-2.5154,-2.5186,-2.5203,-2.5227,-2.5253,-2.5252,-2.5287,-2.5291,-2.53,-2.5299,-2.5305,-2.5305,-2.5314,-2.5315,-2.5315,-2.5315,-2.5315,0,-2.4879,-2.4902,-2.495,-2.4969,-2.4997,-2.5029,-2.5054,-2.5077,-2.5107,-2.513,-2.5154,-2.5174,-2.5208,-2.5233,-2.5253,-2.5281,-2.5288,-2.53,-2.5305,-2.5298,-2.5297,-2.5308,-2.5308,-2.5316,-2.5316,-2.5316,-2.5316,0,-2.4868,-2.4901,-2.4937,-2.4983,-2.4995,-2.5013,-2.5052,-2.5071,-2.5095,-2.5124,-2.5132,-2.5169,-2.5199,-2.5228,-2.5268,-2.5282,-2.5309,-2.5316,-2.5299,-2.5301,-2.5308,-2.5307,-2.5325,-2.5329,-2.5327,-2.5327,-2.5327,0,-2.4871,-2.489,-2.4939,-2.4958,-2.498,-2.5009,-2.503,-2.5062,-2.5082,-2.5122,-2.5136,-2.5169,-2.5197,-2.5244,-2.5273,-2.5303,-2.5311,-2.5315,-2.5315,-2.5308,-2.5311,-2.5309,-2.5311,-2.5314,-2.5314,-2.5314,-2.5314,0,-2.4873,-2.4889,-2.4919,-2.4956,-2.4981,-2.501,-2.504,-2.5053,-2.5091,-2.5112,-2.5145,-2.5167,-2.5209,-2.5241,-2.5275,-2.5295,-2.531,-2.5314,-2.5317,-2.531,-2.5299,-2.5305,-2.5297,-2.5313,-2.5313,-2.5313,-2.5313,-2.5313,-2.4869,-2.4888,-2.4926,-2.4959,-2.4986,-2.5014,-2.5034,-2.5062,-2.509,-2.5129,-2.5145,-2.5178,-2.5211,-2.5259,-2.5279,-2.5305,-2.5308,-2.5313,-2.5314,-2.5315,-2.5313,-2.5296,-2.5311,-2.5311,-2.5311,-2.5311,-2.5311,0,-2.4873,-2.4899,-2.4929,-2.4972,-2.4998,-2.5013,-2.5047,-2.5067,-2.5096,-2.5127,-2.5155,-2.5192,-2.5223,-2.5256,-2.5288,-2.5302,-2.531,-2.531,-2.5309,-2.5313,-2.5308,-2.5302,-2.5303,-2.5303,-2.5303,-2.5303,-2.5303,-2.5303,-2.4878,-2.4911,-2.4931,-2.4977,-2.5002,-2.5036,-2.5055,-2.508,-2.5105,-2.5147,-2.5174,-2.5195,-2.5226,-2.5262,-2.5291,-2.5299,-2.531,-2.5308,-2.5318,-2.5313,-2.5313,-2.5314,-2.5308,-2.531,-2.531,-2.532,-2.5321,-2.5321]},{"header":{"parameterUnit":"m.s-1","parameterCategory":1,"la1":30.2991,"la2":30.254,"lo1":-89.0895,"lo2":-89.0444,"dy":0.0017,"dx":0.0017,"nx":28,"ny":28,"refTime":"2025-08-04T03:00:00:Z","depth":0,"parameterNumber":3,"parameterNumberName":"V-component_of_WINDS"},"data":[0,0,0,0,0,0,0,0,0,0,0,0,0,0,0,0,0,0,0,0,0,0,0,0,0,0,0,0,0,0,0,0,0,0,0,0,0,0,0,0,0,0,0,0,0,0,0,0,0,0,0,0,0,0,0,0,0,0,-0.2555,-0.2555,0,-0.2564,-0.2565,-0.2565,-0.2549,-0.2549,-0.2548,-0.2548,-0.2564,-0.2565,-0.2565,0,0,0,0,0,0,0,0,0,0,0,0,0,-0.2526,-0.2527,-0.2555,-0.2555,-0.2555,-0.2564,-0.2565,-0.2565,-0.2549,-0.2549,-0.2548,-0.2547,-0.2563,-0.2564,-0.2566,0,0,0,0,0,0,0,0,0,0,0,0,0,-0.2538,-0.2527,-0.2555,-0.2548,-0.2548,-0.2564,-0.2565,-0.2565,-0.2549,-0.2549,-0.2548,-0.2547,-0.2563,-0.2564,-0.2566,-0.2591,0,0,-0.257,-0.2571,0,0,0,0,0,0,0,0,-0.2537,-0.2539,-0.2549,-0.2549,-0.2548,-0.2555,-0.2561,-0.2574,-0.255,-0.2549,-0.2548,-0.2547,-0.2562,-0.2563,-0.2567,-0.2592,-0.2592,-0.257,-0.2571,-0.2572,-0.2572,0,0,0,0,0,0,0,-0.2537,-0.2539,-0.2559,-0.2549,-0.2549,-0.2546,-0.2547,-0.2563,-0.256,-0.2549,-0.2548,-0.2549,-0.2561,-0.2566,-0.2567,-0.2593,-0.257,-0.2571,-0.2572,-0.2573,-0.2638,-0.2638,0,0,0,0,0,0,-0.2536,-0.2538,-0.2558,-0.2559,-0.254,-0.2547,-0.2548,-0.2554,-0.256,-0.256,-0.255,-0.2548,-0.2564,-0.2566,-0.2568,-0.2597,-0.2572,-0.2573,-0.2574,-0.2637,-0.2638,-0.2639,0,0,0,0,0,0,-0.2535,-0.2538,-0.2558,-0.2548,-0.255,-0.2549,-0.2555,-0.2554,-0.2558,-0.256,-0.256,-0.2554,-0.2563,-0.2566,-0.2585,-0.2598,-0.2574,-0.2575,-0.2636,-0.2637,-0.2638,-0.2657,0,0,0,0,0,0,-0.2535,-0.2538,-0.2546,-0.2548,-0.2551,-0.2574,-0.2556,-0.2555,-0.256,-0.2558,-0.2565,-0.2565,-0.2563,-0.2583,-0.2586,-0.2599,-0.2576,-0.2635,-0.2636,-0.2638,-0.2655,-0.2658,-0.2661,0,0,0,0,0,-0.2534,-0.2553,-0.2547,-0.255,-0.2562,-0.2574,-0.2576,-0.2571,-0.2561,-0.2571,-0.2571,-0.2565,-0.2595,-0.2585,-0.2588,-0.2602,-0.2634,-0.2636,-0.2638,-0.2653,-0.2658,-0.2661,0,0,0,0,0,0,-0.2555,-0.2553,-0.2547,-0.2567,-0.257,-0.2572,-0.2583,-0.2576,-0.2585,-0.2583,-0.2578,-0.258,-0.26,-0.2603,-0.2591,-0.2626,-0.2613,-0.2616,-0.2624,-0.2628,-0.2631,-0.263,-0.2577,0,0,0,0,0,-0.2561,-0.257,-0.2569,-0.2587,-0.2589,-0.2585,-0.2591,-0.2587,-0.2591,-0.2594,-0.2596,-0.2602,-0.2613,-0.262,-0.2631,-0.2655,-0.2656,-0.2666,-0.2669,-0.2672,-0.2675,-0.2687,-0.2691,-0.2645,-0.2645,-0.2645,0,0,-0.2576,-0.2576,-0.2583,-0.2591,-0.2593,-0.2604,-0.2587,-0.2599,-0.2607,-0.2596,-0.2613,-0.2615,-0.2622,-0.2643,-0.2653,-0.2646,-0.2687,-0.2674,-0.2676,-0.2678,-0.269,-0.2694,-0.2698,-0.2647,-0.2646,-0.2646,0,0,-0.2608,-0.2609,-0.2623,-0.2625,-0.2628,-0.2626,-0.2629,-0.2631,-0.2631,-0.2647,-0.2639,-0.2649,-0.2668,-0.2673,-0.2678,-0.2709,-0.2703,-0.2712,-0.273,-0.2742,-0.2746,-0.2749,-0.276,-0.2764,-0.2715,-0.2715,-0.2715,0,-0.2627,-0.264,-0.2632,-0.2644,-0.2648,-0.2635,-0.2651,-0.2654,-0.2661,-0.2664,-0.2656,-0.2679,-0.2682,-0.2704,-0.2711,-0.2716,-0.272,-0.2712,-0.2745,-0.2749,-0.2752,-0.2762,-0.2766,-0.2716,-0.2716,-0.2716,-0.2716,0,-0.2663,-0.2673,-0.2684,-0.2688,-0.2694,-0.2708,-0.2702,-0.2709,-0.2703,-0.2702,-0.2719,-0.2722,-0.2733,-0.2737,-0.2734,-0.2758,-0.2754,-0.2746,-0.2733,-0.2757,-0.2767,-0.2771,-0.2718,-0.2717,-0.2717,-0.2717,0,0,-0.2711,-0.2708,-0.2713,-0.2714,-0.2715,-0.2724,-0.2736,-0.2744,-0.275,-0.2755,-0.2766,-0.2781,-0.2772,-0.2778,-0.2774,-0.2785,-0.2809,-0.2775,-0.2775,-0.2781,-0.2836,-0.2843,-0.2848,-0.2804,-0.2805,-0.2806,-0.2836,0,-0.2743,-0.2763,-0.2755,-0.2777,-0.2785,-0.2772,-0.2784,-0.2786,-0.2785,-0.2793,-0.2792,-0.2803,-0.2791,-0.2794,-0.2804,-0.2804,-0.282,-0.2802,-0.2816,-0.2817,-0.2815,-0.2853,-0.286,-0.2889,-0.284,-0.284,-0.2841,0,-0.2783,-0.2786,-0.2808,-0.2806,-0.281,-0.282,-0.2826,-0.2833,-0.2836,-0.2834,-0.2839,-0.2832,-0.2846,-0.2831,-0.285,-0.2838,-0.2843,-0.2844,-0.2845,-0.2847,-0.2831,-0.2856,-0.2898,-0.2902,-0.2847,-0.2846,-0.2846,0,-0.2816,-0.2826,-0.284,-0.2842,-0.284,-0.2847,-0.2847,-0.2849,-0.2853,-0.2859,-0.2862,-0.2869,-0.2874,-0.288,-0.2876,-0.2866,-0.2896,-0.2881,-0.2895,-0.2896,-0.2903,-0.2903,-0.2947,-0.2906,-0.2906,-0.2905,-0.2905,0,-0.2853,-0.2867,-0.2855,-0.2864,-0.2879,-0.2869,-0.2885,-0.2884,-0.2885,-0.2894,-0.2884,-0.2893,-0.2886,-0.2895,-0.2892,-0.2908,-0.291,-0.291,-0.2909,-0.2911,-0.2911,-0.2915,-0.2913,-0.2907,-0.2906,-0.2906,-0.2906,0,-0.2893,-0.2885,-0.29,-0.2896,-0.2895,-0.2906,-0.2904,-0.2912,-0.2909,-0.292,-0.2922,-0.2918,-0.2927,-0.2923,-0.2934,-0.2932,-0.2952,-0.2949,-0.2951,-0.295,-0.2965,-0.2964,-0.3013,-0.3019,-0.2974,-0.2974,-0.2975,0,-0.2917,-0.2927,-0.2923,-0.2927,-0.2927,-0.2935,-0.2938,-0.2929,-0.2934,-0.2936,-0.2945,-0.2952,-0.2958,-0.2974,-0.2973,-0.2981,-0.2978,-0.2994,-0.2979,-0.298,-0.2978,-0.2978,-0.2979,-0.2998,-0.2998,-0.2999,-0.2999,0,-0.2961,-0.2957,-0.2961,-0.2965,-0.2969,-0.2971,-0.2973,-0.2978,-0.2968,-0.2974,-0.2982,-0.2987,-0.2996,-0.3004,-0.301,-0.3012,-0.3004,-0.3003,-0.3007,-0.301,-0.3011,-0.3011,-0.296,-0.3003,-0.3003,-0.3002,-0.3002,-0.3002,-0.2995,-0.3003,-0.3001,-0.3006,-0.3006,-0.3007,-0.3014,-0.3011,-0.3017,-0.3022,-0.3017,-0.3026,-0.3028,-0.3035,-0.3037,-0.3045,-0.3039,-0.3044,-0.3046,-0.3048,-0.3049,-0.3008,-0.3046,-0.3046,-0.3046,-0.3046,-0.3046,0,-0.3039,-0.3036,-0.3041,-0.3043,-0.3047,-0.3036,-0.3037,-0.3042,-0.305,-0.3051,-0.3056,-0.3065,-0.3072,-0.307,-0.3077,-0.3084,-0.3081,-0.3086,-0.3086,-0.3086,-0.3055,-0.3051,-0.3088,-0.3088,-0.3088,-0.3088,-0.3088,-0.3088,-0.3063,-0.3075,-0.3069,-0.3082,-0.3079,-0.3087,-0.3088,-0.309,-0.309,-0.31,-0.3105,-0.3102,-0.3102,-0.3108,-0.3114,-0.3114,-0.3117,-0.3124,-0.3122,-0.3093,-0.3089,-0.3085,-0.3081,-0.3124,-0.3124,-0.3153,-0.3153,-0.3153]}]]